Mora, MN

3:48 AM CDT on May 27, 2017 (GMT -0500)
Mora Municipal

Weather History for KJMR - December, 2012

Change the Weather History Date:

Monday, December 24, 2012

  Actual Average Record
Temperature  
Mean Temperature 8 °F -  
Max Temperature 14 °F 19 °F 43 °F (1957)
Min Temperature 1 °F -1 °F -25 °F (1983)
Degree Days  
Heating Degree Days 56    
Moisture  
Dew Point 3 °F    
Average Humidity 71    
Maximum Humidity 85    
Minimum Humidity 57    
Precipitation  
Precipitation 0.00 in - - ()
Sea Level Pressure  
Sea Level Pressure 30.12 in    
Wind  
Wind Speed 5 mph (NNW)    
Max Wind Speed 15 mph    
Max Gust Speed 20 mph    
Visibility 10 miles    
Events Snow    
Averages and records for this station are not official NWS values.
T = Trace of Precipitation, MM = Missing Value Source: NWS Daily Summary

Daily Weather History Graph

Daily Weather History Graph

Search for Another Location

Airport or City:

Trip Planner

Search our weather history database for the weather conditions in past years. The results will help you decide how hot, cold, wet, or windy it might be!

Date:

Astronomy

Dec. 24, 2012 Rise Set
Actual Time 7:53 AM CST 4:32 PM CST
Civil Twilight 7:18 AM CST 5:07 PM CST
Nautical Twilight 6:40 AM CST 5:45 PM CST
Astronomical Twilight 6:04 AM CST 6:21 PM CST
Moon 2:04 PM CST (12/24) 4:27 AM CST (12/24)
Length of Visible Light 9h 48m
Length of Day
8h 39m
Waxing Gibbous, 88% of the Moon is Illuminated
Dec 24
Waxing Gibbous
Dec 28
Full
Jan 4
Last Quarter
Jan 11
New
Jan 18
First Quarter

Hourly Weather History & Observations

Time (CST) Temp. Windchill Dew Point Humidity Pressure Visibility Wind Dir Wind Speed Gust Speed Precip Events Conditions
12:02 AM 14.0 °F - 8.6 °F 79% 30.05 in 10.0 mi Calm Calm - N/A   Overcast
12:21 AM 14.0 °F - 6.8 °F 73% 30.04 in 10.0 mi Calm Calm - N/A   Overcast
12:42 AM 12.2 °F - 6.8 °F 79% 30.04 in 10.0 mi Calm Calm - N/A   Overcast
1:01 AM 12.2 °F - 6.8 °F 79% 30.03 in 10.0 mi Calm Calm - N/A   Overcast
1:22 AM 12.2 °F 6.1 °F 6.8 °F 79% 30.04 in 10.0 mi NNW 3.5 mph - N/A   Overcast
1:42 AM 12.2 °F 6.1 °F 6.8 °F 79% 30.03 in 10.0 mi North 3.5 mph - N/A   Overcast
2:02 AM 12.2 °F 6.1 °F 6.8 °F 79% 30.03 in 10.0 mi North 3.5 mph - N/A   Overcast
2:22 AM 12.2 °F - 6.8 °F 79% 30.03 in 10.0 mi Calm Calm - N/A   Overcast
2:42 AM 12.2 °F 6.1 °F 8.6 °F 85% 30.04 in 10.0 mi North 3.5 mph - N/A   Overcast
3:02 AM 14.0 °F 8.2 °F 8.6 °F 79% 30.04 in 10.0 mi North 3.5 mph - N/A   Mostly Cloudy
3:22 AM 14.0 °F 8.2 °F 8.6 °F 79% 30.04 in 10.0 mi North 3.5 mph - N/A   Mostly Cloudy
3:42 AM 14.0 °F 6.5 °F 8.6 °F 79% 30.03 in 10.0 mi North 4.6 mph - N/A   Overcast
4:02 AM 14.0 °F 5.1 °F 8.6 °F 79% 30.03 in 10.0 mi North 5.8 mph - N/A   Overcast
4:22 AM 14.0 °F 8.2 °F 8.6 °F 79% 30.04 in 10.0 mi North 3.5 mph - N/A   Overcast
4:42 AM 14.0 °F 6.5 °F 8.6 °F 79% 30.04 in 10.0 mi North 4.6 mph - N/A   Overcast
5:02 AM 14.0 °F 3.9 °F 8.6 °F 79% 30.04 in 10.0 mi NNW 6.9 mph - N/A   Overcast
5:22 AM 14.0 °F 8.2 °F 8.6 °F 79% 30.04 in 10.0 mi North 3.5 mph - N/A   Overcast
5:42 AM 14.0 °F 5.1 °F 8.6 °F 79% 30.05 in 10.0 mi North 5.8 mph - N/A   Overcast
6:02 AM 14.0 °F 6.5 °F 8.6 °F 79% 30.04 in 10.0 mi North 4.6 mph - N/A   Overcast
6:22 AM 14.0 °F 3.9 °F 6.8 °F 73% 30.04 in 10.0 mi North 6.9 mph - N/A   Overcast
6:42 AM 12.2 °F 2.9 °F 6.8 °F 79% 30.05 in 5.0 mi North 5.8 mph - N/A Snow Light Snow
7:02 AM 12.2 °F 1.7 °F 6.8 °F 79% 30.05 in 7.0 mi North 6.9 mph - N/A   Overcast
7:21 AM 12.2 °F 2.9 °F 5.0 °F 73% 30.05 in 10.0 mi North 5.8 mph - N/A   Overcast
7:42 AM 12.2 °F 4.3 °F 5.0 °F 73% 30.07 in 4.0 mi North 4.6 mph - N/A Snow Light Snow
8:02 AM 12.2 °F 4.3 °F 6.8 °F 79% 30.06 in 7.0 mi North 4.6 mph - N/A   Overcast
8:21 AM 12.2 °F 4.3 °F 5.0 °F 73% 30.07 in 10.0 mi North 4.6 mph - N/A   Mostly Cloudy
8:42 AM 12.2 °F -0.2 °F 5.0 °F 73% 30.07 in 10.0 mi North 9.2 mph - N/A   Mostly Cloudy
9:01 AM 12.2 °F -0.2 °F 5.0 °F 73% 30.07 in 10.0 mi North 9.2 mph 16.1 mph N/A   Overcast
9:22 AM 12.2 °F 2.9 °F 3.2 °F 67% 30.08 in 10.0 mi North 5.8 mph - N/A   Mostly Cloudy
9:42 AM 10.4 °F -0.4 °F 1.4 °F 67% 30.08 in 10.0 mi North 6.9 mph - N/A   Scattered Clouds
10:01 AM 12.2 °F 4.3 °F 1.4 °F 62% 30.09 in 10.0 mi North 4.6 mph - N/A   Clear
10:22 AM 10.4 °F 4.0 °F -0.4 °F 62% 30.10 in 10.0 mi North 3.5 mph - N/A   Clear
10:41 AM 12.2 °F -1.8 °F 1.4 °F 62% 30.11 in 10.0 mi NNW 11.5 mph - N/A   Clear
11:02 AM 12.2 °F -0.2 °F 1.4 °F 62% 30.11 in 10.0 mi NNW 9.2 mph - N/A   Clear
11:22 AM 12.2 °F -0.2 °F -0.4 °F 57% 30.11 in 10.0 mi NNW 9.2 mph - N/A   Clear
11:41 AM 12.2 °F -0.2 °F -0.4 °F 57% 30.12 in 10.0 mi NNW 9.2 mph - N/A   Clear
12:02 PM 14.0 °F 0.5 °F 1.4 °F 57% 30.12 in 10.0 mi NW 11.5 mph - N/A   Clear
12:21 PM 12.2 °F -1.0 °F 1.4 °F 62% 30.12 in 10.0 mi NW 10.4 mph - N/A   Clear
12:42 PM 12.2 °F -1.8 °F -0.4 °F 57% 30.12 in 10.0 mi NW 11.5 mph 16.1 mph N/A   Clear
1:02 PM 12.2 °F -2.5 °F -0.4 °F 57% 30.12 in 10.0 mi NNW 12.7 mph - N/A   Clear
1:22 PM 12.2 °F -1.0 °F 1.4 °F 62% 30.12 in 10.0 mi NW 10.4 mph - N/A   Clear
1:42 PM 12.2 °F -3.7 °F -0.4 °F 57% 30.12 in 10.0 mi NNW 15.0 mph 19.6 mph N/A   Clear
2:01 PM 12.2 °F -1.8 °F -0.4 °F 57% 30.11 in 10.0 mi NW 11.5 mph - N/A   Clear
2:22 PM 12.2 °F -0.2 °F -0.4 °F 57% 30.11 in 10.0 mi NW 9.2 mph - N/A   Clear
2:41 PM 12.2 °F 0.7 °F -0.4 °F 57% 30.11 in 10.0 mi NW 8.1 mph - N/A   Clear
3:02 PM 12.2 °F -0.2 °F -0.4 °F 57% 30.11 in 10.0 mi NNW 9.2 mph - N/A   Clear
3:22 PM 12.2 °F 0.7 °F -0.4 °F 57% 30.12 in 10.0 mi NNW 8.1 mph - N/A   Clear
3:42 PM 12.2 °F 4.3 °F -0.4 °F 57% 30.13 in 10.0 mi North 4.6 mph - N/A   Clear
4:02 PM 12.2 °F 0.7 °F 1.4 °F 62% 30.13 in 10.0 mi NNW 8.1 mph - N/A   Clear
4:22 PM 12.2 °F 0.7 °F 1.4 °F 62% 30.14 in 10.0 mi NNW 8.1 mph - N/A   Clear
4:42 PM 10.4 °F -1.5 °F 1.4 °F 67% 30.15 in 10.0 mi NW 8.1 mph - N/A   Clear
5:02 PM 10.4 °F -1.5 °F 1.4 °F 67% 30.15 in 10.0 mi NW 8.1 mph - N/A   Clear
5:22 PM 8.6 °F -2.6 °F 1.4 °F 73% 30.16 in 10.0 mi NW 6.9 mph - N/A   Clear
5:42 PM 8.6 °F -3.7 °F -0.4 °F 67% 30.17 in 10.0 mi NW 8.1 mph - N/A   Clear
6:01 PM 6.8 °F -3.5 °F -0.4 °F 72% 30.18 in 10.0 mi NW 5.8 mph - N/A   Clear
6:22 PM 6.8 °F -3.5 °F -0.4 °F 72% 30.19 in 10.0 mi NW 5.8 mph - N/A   Clear
6:42 PM 6.8 °F -5.9 °F -0.4 °F 72% 30.19 in 10.0 mi NW 8.1 mph - N/A   Clear
7:02 PM 6.8 °F -5.9 °F -0.4 °F 72% 30.20 in 10.0 mi NNW 8.1 mph - N/A   Clear
7:22 PM 6.8 °F -4.8 °F -0.4 °F 72% 30.21 in 10.0 mi NNW 6.9 mph - N/A   Clear
7:42 PM 6.8 °F -4.8 °F -0.4 °F 72% 30.21 in 10.0 mi North 6.9 mph - N/A   Clear
8:02 PM 6.8 °F -5.9 °F 1.4 °F 79% 30.22 in 10.0 mi NNW 8.1 mph - N/A   Clear
8:22 PM 5.0 °F -6.9 °F -0.4 °F 78% 30.23 in 10.0 mi NNW 6.9 mph - N/A   Clear
8:42 PM 5.0 °F -6.9 °F -0.4 °F 78% 30.24 in 10.0 mi NNW 6.9 mph - N/A   Clear
9:02 PM 5.0 °F -8.1 °F -0.4 °F 78% 30.25 in 10.0 mi NNW 8.1 mph - N/A   Clear
9:22 PM 5.0 °F -5.6 °F -0.4 °F 78% 30.25 in 10.0 mi NNW 5.8 mph - N/A   Clear
9:42 PM 5.0 °F -8.1 °F -0.4 °F 78% 30.26 in 10.0 mi NNW 8.1 mph - N/A   Clear
10:02 PM 5.0 °F -4.1 °F -0.4 °F 78% 30.26 in 10.0 mi North 4.6 mph - N/A   Clear
10:22 PM 5.0 °F -9.1 °F -0.4 °F 78% 30.27 in 10.0 mi NNW 9.2 mph - N/A   Clear
10:41 PM 5.0 °F -6.9 °F -0.4 °F 78% 30.27 in 10.0 mi NNW 6.9 mph - N/A   Clear
11:02 PM 3.2 °F -10.3 °F -2.2 °F 78% 30.28 in 10.0 mi NNW 8.1 mph - N/A   Clear
11:22 PM 3.2 °F -6.2 °F -4.0 °F 72% 30.28 in 10.0 mi North 4.6 mph - N/A   Clear
11:42 PM 1.4 °F -9.9 °F -4.0 °F 78% 30.28 in 10.0 mi NNW 5.8 mph - N/A   Clear